• In Sweden
  • List of Countries
  • For 7 days
  • Water Temperature
  • Satellite Maps
  • Weather Map
  • Weather Widgets
  • user-avatar
    Login

    Hourly Weather Fateykovo

    Today, 17 August, Friday

    Time Temperature Precipitation Wind Pressure Humidity
    00:00 +14°C° 0 mm 2 mps 747 mmHg 94%
    01:00 +13°C° 0 mm 2 mps 747 mmHg 94%
    02:00 +13°C° 0 mm 2 mps 747 mmHg 95%
    03:00 +13°C° 0 mm 2 mps 748 mmHg 95%
    04:00 +13°C° 0 mm 2 mps 748 mmHg 95%
    05:00 +13°C° 0 mm 2 mps 748 mmHg 95%
    06:00 +15°C° 0 mm 2 mps 748 mmHg 88%
    07:00 +17°C° 0 mm 2 mps 749 mmHg 81%
    08:00 +18°C° 0 mm 2 mps 749 mmHg 73%
    09:00 +20°C° 0 mm 2 mps 749 mmHg 67%
    10:00 +21°C° 0 mm 2 mps 749 mmHg 61%
    11:00 +22°C° 0 mm 3 mps 749 mmHg 55%
    12:00 +24°C° 0 mm 2 mps 749 mmHg 53%
    13:00 +24°C° 0 mm 2 mps 749 mmHg 51%
    14:00 +25°C° 0 mm 2 mps 748 mmHg 49%
    15:00 +24°C° 0 mm 2 mps 748 mmHg 53%
    16:00 +24°C° 0 mm 2 mps 748 mmHg 57%
    17:00 +24°C° 0 mm 2 mps 748 mmHg 60%
    18:00 +22°C° 0 mm 1 mps 748 mmHg 65%
    19:00 +19°C° 0 mm 1 mps 748 mmHg 70%
    20:00 +16°C° 0 mm 1 mps 748 mmHg 75%
    21:00 +16°C° 0 mm 1 mps 748 mmHg 77%
    22:00 +15°C° 0 mm 1 mps 748 mmHg 78%
    23:00 +14°C° 0 mm 1 mps 748 mmHg 80%

    Tomorrow, 18 August, Saturday

    Time Temperature Precipitation Wind Pressure Humidity
    00:00 +14°C° 0 mm 1 mps 748 mmHg 81%
    01:00 +13°C° 0 mm 1 mps 749 mmHg 83%
    02:00 +13°C° 0 mm 1 mps 749 mmHg 84%
    03:00 +13°C° 0 mm 1 mps 749 mmHg 85%
    04:00 +12°C° 0 mm 1 mps 749 mmHg 86%
    05:00 +12°C° 0 mm 1 mps 749 mmHg 86%
    06:00 +14°C° 0 mm 1 mps 749 mmHg 79%
    07:00 +18°C° 0 mm 1 mps 749 mmHg 73%
    08:00 +20°C° 0 mm 1 mps 749 mmHg 66%
    09:00 +20°C° 0 mm 2 mps 749 mmHg 60%
    10:00 +23°C° 0 mm 2 mps 749 mmHg 55%
    11:00 +25°C° 0 mm 2 mps 749 mmHg 50%
    12:00 +25°C° 0 mm 2 mps 749 mmHg 49%
    13:00 +25°C° 0 mm 2 mps 748 mmHg 48%
    14:00 +26°C° 0 mm 2 mps 748 mmHg 47%
    15:00 +25°C° 0 mm 2 mps 748 mmHg 51%
    16:00 +25°C° 0 mm 2 mps 748 mmHg 56%
    17:00 +25°C° 0 mm 2 mps 748 mmHg 60%
    18:00 +21°C° 0 mm 2 mps 748 mmHg 67%
    19:00 +19°C° 0 mm 2 mps 748 mmHg 73%
    20:00 +17°C° 0 mm 2 mps 748 mmHg 79%
    21:00 +17°C° 0 mm 2 mps 748 mmHg 81%
    22:00 +16°C° 0 mm 2 mps 748 mmHg 84%
    23:00 +15°C° 0 mm 2 mps 748 mmHg 87%

    Day after tomorrow, 19 August, Sunday

    Time Temperature Precipitation Wind Pressure Humidity
    00:00 +15°C° 0 mm 2 mps 748 mmHg 87%
    01:00 +14°C° 0 mm 2 mps 748 mmHg 88%
    02:00 +14°C° 0 mm 2 mps 748 mmHg 89%
    03:00 +14°C° 0 mm 2 mps 748 mmHg 90%
    04:00 +13°C° 0 mm 2 mps 748 mmHg 90%
    05:00 +13°C° 0 mm 2 mps 748 mmHg 90%
    06:00 +15°C° 0 mm 2 mps 748 mmHg 84%
    07:00 +17°C° 0 mm 2 mps 748 mmHg 77%
    08:00 +19°C° 0 mm 3 mps 748 mmHg 70%
    09:00 +21°C° 0 mm 3 mps 747 mmHg 65%
    10:00 +22°C° 0 mm 3 mps 747 mmHg 59%
    11:00 +25°C° 0 mm 4 mps 747 mmHg 54%
    12:00 +25°C° 0 mm 4 mps 746 mmHg 52%
    13:00 +26°C° 0 mm 4 mps 746 mmHg 51%
    14:00 +26°C° 0 mm 4 mps 746 mmHg 50%
    15:00 +26°C° 0 mm 4 mps 745 mmHg 53%
    16:00 +25°C° 0 mm 3 mps 745 mmHg 57%
    17:00 +25°C° 0 mm 3 mps 745 mmHg 61%
    18:00 +22°C° 0 mm 3 mps 745 mmHg 66%
    19:00 +20°C° 0 mm 2 mps 745 mmHg 72%
    20:00 +18°C° 0 mm 2 mps 745 mmHg 78%
    21:00 +18°C° 0 mm 2 mps 744 mmHg 79%
    22:00 +17°C° 0 mm 2 mps 744 mmHg 81%
    23:00 +17°C° 0 mm 2 mps 744 mmHg 83%

    20 August, Monday

    Time Temperature Precipitation Wind Pressure Humidity
    00:00 +16°C° 0.2 mm 2 mps 744 mmHg 84%
    01:00 +16°C° 0.2 mm 2 mps 744 mmHg 86%
    02:00 +16°C° 0.2 mm 2 mps 744 mmHg 87%
    03:00 +16°C° 0.5 mm 2 mps 744 mmHg 89%
    04:00 +16°C° 0.5 mm 2 mps 744 mmHg 90%
    05:00 +15°C° 0.5 mm 2 mps 743 mmHg 92%
    06:00 +17°C° 0.2 mm 2 mps 743 mmHg 90%
    07:00 +18°C° 0.2 mm 2 mps 744 mmHg 89%
    08:00 +19°C° 0.2 mm 2 mps 744 mmHg 87%
    09:00 +20°C° 0.1 mm 2 mps 744 mmHg 82%
    10:00 +21°C° 0.1 mm 2 mps 744 mmHg 77%
    11:00 +24°C° 0.1 mm 2 mps 744 mmHg 72%
    12:00 +24°C° 0.1 mm 2 mps 743 mmHg 69%
    13:00 +24°C° 0.1 mm 2 mps 743 mmHg 66%
    14:00 +25°C° 0.1 mm 2 mps 743 mmHg 63%
    15:00 +24°C° 0.1 mm 2 mps 743 mmHg 66%
    16:00 +24°C° 0.1 mm 2 mps 743 mmHg 70%
    17:00 +23°C° 0.1 mm 2 mps 743 mmHg 74%
    18:00 +21°C° 0 mm 2 mps 743 mmHg 79%
    19:00 +19°C° 0 mm 2 mps 743 mmHg 85%
    20:00 +18°C° 0 mm 2 mps 743 mmHg 91%
    21:00 +17°C° 0 mm 2 mps 743 mmHg 93%
    22:00 +18°C° 0 mm 1 mps 743 mmHg 94%
    23:00 +16°C° 0 mm 1 mps 743 mmHg 96%

    21 August, Tuesday

    Time Temperature Precipitation Wind Pressure Humidity
    00:00 +16°C° 0 mm 1 mps 743 mmHg 96%
    01:00 +16°C° 0 mm 1 mps 744 mmHg 96%
    02:00 +15°C° 0 mm 1 mps 744 mmHg 96%
    03:00 +15°C° 0 mm 1 mps 744 mmHg 95%
    04:00 +15°C° 0 mm 1 mps 744 mmHg 95%
    05:00 +14°C° 0 mm 0 mps 744 mmHg 95%
    06:00 +18°C° 0 mm 1 mps 744 mmHg 90%
    07:00 +19°C° 0 mm 1 mps 744 mmHg 85%
    08:00 +20°C° 0 mm 1 mps 745 mmHg 80%
    09:00 +21°C° 0.3 mm 1 mps 744 mmHg 78%
    10:00 +22°C° 0.3 mm 1 mps 744 mmHg 77%
    11:00 +23°C° 0.3 mm 2 mps 744 mmHg 75%
    12:00 +23°C° 0.9 mm 2 mps 744 mmHg 76%
    13:00 +23°C° 0.9 mm 2 mps 744 mmHg 76%
    14:00 +23°C° 0.9 mm 2 mps 743 mmHg 77%
    15:00 +23°C° 0.6 mm 2 mps 743 mmHg 79%
    16:00 +23°C° 0.6 mm 2 mps 743 mmHg 81%
    17:00 +23°C° 0.6 mm 2 mps 743 mmHg 83%
    18:00 +20°C° 0.1 mm 2 mps 743 mmHg 86%
    19:00 +19°C° 0.1 mm 2 mps 742 mmHg 90%
    20:00 +18°C° 0.1 mm 2 mps 742 mmHg 93%
    21:00 +18°C° 0 mm 2 mps 742 mmHg 94%
    22:00 +17°C° 0 mm 2 mps 742 mmHg 95%
    23:00 +17°C° 0 mm 2 mps 742 mmHg 96%

    22 August, Wednesday

    Time Temperature Precipitation Wind Pressure Humidity
    00:00 +17°C° 0 mm 2 mps 742 mmHg 96%
    01:00 +17°C° 0 mm 2 mps 742 mmHg 96%
    02:00 +17°C° 0 mm 3 mps 741 mmHg 96%
    03:00 +17°C° 0 mm 3 mps 741 mmHg 96%
    04:00 +18°C° 0 mm 3 mps 741 mmHg 95%
    05:00 +18°C° 0 mm 3 mps 741 mmHg 95%
    06:00 +19°C° 0 mm 3 mps 741 mmHg 92%
    07:00 +19°C° 0 mm 4 mps 741 mmHg 90%
    08:00 +20°C° 0 mm 4 mps 741 mmHg 87%
    09:00 +21°C° 0.1 mm 4 mps 741 mmHg 81%
    10:00 +23°C° 0.1 mm 4 mps 741 mmHg 75%
    11:00 +25°C° 0.1 mm 5 mps 741 mmHg 68%
    12:00 +25°C° 0.1 mm 5 mps 741 mmHg 66%
    13:00 +25°C° 0.1 mm 4 mps 741 mmHg 64%
    14:00 +26°C° 0.1 mm 4 mps 741 mmHg 62%
    15:00 +25°C° 0.1 mm 3 mps 741 mmHg 65%
    16:00 +25°C° 0.1 mm 3 mps 741 mmHg 69%
    17:00 +24°C° 0.1 mm 2 mps 741 mmHg 72%
    18:00 +21°C° 0 mm 2 mps 741 mmHg 77%
    19:00 +20°C° 0 mm 2 mps 741 mmHg 83%
    20:00 +18°C° 0 mm 2 mps 741 mmHg 89%
    21:00 +17°C° 0 mm 2 mps 741 mmHg 90%
    22:00 +17°C° 0 mm 2 mps 741 mmHg 92%
    23:00 +16°C° 0 mm 2 mps 741 mmHg 93%
    Show more